/EX
1
0
testing
1
0
21 Jul '22
The following satellites have been added to this week's AMSAT-NA TLE
distribution:
MTCube 2 NORAD Cat ID 53106 (Thanks to Nico Janssen, PA0DLO for
identification).
AstroBioCubeSat NORAD Cat ID 53107 (Thanks to Nico Janssen, PA0DLO for
identification).
GREENCUBE NORAD Cat ID 53109 (Thanks to Nico Janssen, PA0DLO for
identification).
CELESTA NORAD Cat ID 53111 (Thanks to Nico Janssen, PA0DLO for
identification).
Ray Hoad
WA5QGD
AMSAT-NA Orbital Elements Manager
1
0
SB KEPS @ AMSAT $ORB22202.N
2Line Orbital Elements 22202.AMSAT
HR AMSAT ORBITAL ELEMENTS FOR AMATEUR SATELLITES IN NASA FORMAT
FROM WA5QGD FORT WORTH,TX July 21, 2022
BID: ORB22202.N
DECODE 2-LINE ELSETS WITH THE FOLLOWING KEY:
1 AAAAAU 00 0 0 BBBBB.BBBBBBBB .CCCCCCCC 00000-0 00000-0 0 DDDZ
2 AAAAA EEE.EEEE FFF.FFFF GGGGGGG HHH.HHHH III.IIII JJ.JJJJJJJJKKKKKZ
KEY: A-CATALOGNUM B-EPOCHTIME C-DECAY D-ELSETNUM E-INCLINATION F-RAAN
G-ECCENTRICITY H-ARGPERIGEE I-MNANOM J-MNMOTION K-ORBITNUM Z-CHECKSUM
TO ALL RADIO AMATEURS BT
AO-07
1 07530U 74089B 22202.50757197 -.00000027 00000-0 12004-3 0 9992
2 07530 101.9058 182.4875 0012174 338.8273 141.7699 12.53655959181732
UO-11
1 14781U 84021B 22202.44140127 .00000814 00000-0 10444-3 0 9996
2 14781 97.6186 188.3298 0007694 200.1062 159.9851 14.83725771 45086
LO-19
1 20442U 90005G 22202.45250080 .00000121 00000-0 60734-4 0 9996
2 20442 98.7957 167.8372 0012867 70.7790 289.4785 14.33072313698033
HUBBLE
1 20580U 90037B 22202.57359010 .00002413 00000-0 13125-3 0 9997
2 20580 28.4705 302.7002 0002803 47.7292 337.3123 15.10696862571381
MET-2/21
1 22782U 93055A 22202.48140156 .00000005 00000-0 -83253-5 0 9992
2 22782 82.5500 347.2278 0021104 251.0104 169.7887 13.83856967458714
AO-27
1 22825U 93061C 22202.51554197 .00000057 00000-0 39867-4 0 9992
2 22825 98.8849 234.2699 0007654 318.3432 41.7165 14.30181795503021
IO-26
1 22826U 93061D 22202.32067841 .00000075 00000-0 46614-4 0 9995
2 22826 98.8793 233.9482 0008008 303.7294 56.3124 14.30528652503501
FO-29
1 24278U 96046B 22202.29883024 -.00000016 00000-0 19333-4 0 9993
2 24278 98.5150 221.3349 0350009 195.3172 163.7155 13.53117841280183
NOAA-15
1 25338U 98030A 22202.79773808 .00000158 00000-0 84273-4 0 9990
2 25338 98.6421 231.8811 0010136 191.0771 169.0187 14.26152938258169
GO-32
1 25397U 98043D 22202.44240372 .00000050 00000-0 41459-4 0 9996
2 25397 98.8191 153.0038 0001903 45.7915 314.3419 14.23762586248269
ISS
1 25544U 98067A 22202.89296957 .00009899 00000-0 18066-3 0 9992
2 25544 51.6421 164.6862 0005724 27.8461 82.9663 15.50079132350566
NO-44
1 26931U 01043C 22202.49622120 .00000099 00000-0 69516-4 0 9992
2 26931 67.0526 330.5264 0007163 259.2279 100.8016 14.30718546 86273
SO-50
1 27607U 02058C 22202.46594824 .00000731 00000-0 12068-3 0 9998
2 27607 64.5530 197.8149 0080017 287.8928 71.3461 14.76173786 53398
CO-55
1 27844U 03031E 22202.47126605 .00000223 00000-0 11966-3 0 9994
2 27844 98.6782 209.6434 0010092 10.9142 349.2253 14.22470205988701
CO-57
1 27848U 03031J 22202.44487104 .00000191 00000-0 10598-3 0 9993
2 27848 98.6828 210.1300 0010240 24.7787 335.3880 14.22025005988513
RS-22
1 27939U 03042A 22202.76533235 .00000907 00000-0 16905-3 0 9991
2 27939 98.1969 343.4848 0014191 99.8566 260.4257 14.67402340 6077
NOAA-18
1 28654U 05018A 22202.69715647 .00000154 00000-0 10731-3 0 9997
2 28654 98.9478 273.1042 0013452 231.6961 128.3002 14.12755898884909
CO-58
1 28895U 05043F 22202.34191996 .00000876 00000-0 17449-3 0 9993
2 28895 98.1108 333.2061 0017354 38.7642 321.4802 14.64397903892374
Falconsat-3
1 30776U 07006E 22202.55522697 .00038992 00000-0 54641-3 0 9999
2 30776 35.4315 36.5130 0003617 358.6809 1.3914 15.55725993854893
CO-65
1 32785U 08021C 22202.35214934 .00001789 00000-0 19225-3 0 9992
2 32785 97.6588 172.1319 0014060 117.9275 242.3368 14.89694434771530
AAUSAT2
1 32788U 08021F 22202.44653877 .00005130 00000-0 44156-3 0 9993
2 32788 97.5355 186.5635 0011698 20.1074 340.0607 14.97737098773526
DO-64
1 32789U 08021G 22202.31902438 .00011060 00000-0 60305-3 0 9993
2 32789 97.3377 227.4041 0009810 194.7810 165.3136 15.14501679777055
CO-66
1 32791U 08021J 22202.36144088 .00003113 00000-0 30555-3 0 9994
2 32791 97.6129 177.5980 0014493 78.6155 281.6692 14.92825037772256
RS-30
1 32953U 08025A 22202.82524938 .00000024 00000-0 10000-3 0 9996
2 32953 82.5035 162.5639 0018916 181.7159 178.3856 12.43111799642600
PRISM
1 33493U 09002B 22202.43410505 .00004888 00000-0 39642-3 0 9998
2 33493 98.2258 190.9338 0017704 66.7198 293.5885 15.00065292734078
NOAA-19
1 33591U 09005A 22202.77319313 .00000127 00000-0 93820-4 0 9993
2 33591 99.1457 237.6273 0014959 92.0133 268.2751 14.12590504693295
SRMSAT
1 37841U 11058D 22202.30328972 .00000375 00000-0 61283-4 0 9999
2 37841 19.9734 50.3063 0011822 356.1796 161.4713 14.10761965556252
HRBE
1 37855U 11061F 22202.30462140 .00006512 00000-0 28566-3 0 9999
2 37855 101.7131 339.3113 0151854 320.8530 38.1777 15.12855095586353
RS-40
1 38735U 12041C 22202.79552175 .00000046 00000-0 26448-3 0 9990
2 38735 82.4745 244.0766 0015977 298.3596 61.5872 12.42587150452788
ZACUBE-1
1 39417U 13066B 22202.85955236 .00002089 00000-0 25996-3 0 9994
2 39417 97.6376 172.8087 0056122 292.5823 66.9459 14.82459366468223
Delfi-N3xt
1 39428U 13066N 22202.37425298 .00001813 00000-0 28449-3 0 9993
2 39428 97.8143 135.2781 0117183 168.6775 191.7111 14.69288668463516
GOMX-1
1 39430U 13066Q 22202.78456109 .00001374 00000-0 25338-3 0 9992
2 39430 97.8079 108.0214 0147838 297.0003 61.6176 14.60272655461308
LO-74
1 39440U 13066AA 22202.46301478 .00002234 00000-0 30730-3 0 9994
2 39440 97.7271 158.5937 0079338 22.2962 338.1666 14.77109796465308
AO-73
1 39444U 13066AE 22202.44624410 .00002086 00000-0 25309-3 0 9991
2 39444 97.6257 174.8239 0054821 281.6479 77.8587 14.83560719466566
SPROUT
1 39770U 14029E 22202.60698258 .00006954 00000-0 70398-3 0 9998
2 39770 97.9460 319.7676 0008167 343.0939 17.0015 14.91253008442754
DTUSAT-2
1 40030U 14033W 22202.35780392 .00002620 00000-0 27690-3 0 9990
2 40030 97.9368 135.2641 0010386 307.6504 52.3770 14.90078465438694
EO-80
1 40032U 14033Y 22202.53213656 .00001943 00000-0 20699-3 0 9995
2 40032 97.9372 135.4531 0010395 308.1404 51.8876 14.90050720438691
HODOYOSHI-1
1 40299U 14070B 22202.87425870 .00005570 00000-0 21092-3 0 9999
2 40299 97.2412 269.9906 0012897 23.0092 65.9557 15.27235293428319
FIREBIRD FU3
1 40377U 15003B 22202.43469366 .00013336 00000-0 39146-3 0 9991
2 40377 99.0964 74.9440 0097195 269.9351 89.0747 15.30696397413613
FIREBIRD FU4
1 40378U 15003C 22202.45807722 .00013884 00000-0 40609-3 0 9990
2 40378 99.0968 75.1907 0097118 269.4654 89.5453 15.30797099413626
GRIFEX
1 40379U 15003D 22202.53955074 .00008528 00000-0 29934-3 0 9991
2 40379 99.1090 60.8310 0113374 313.2589 45.9223 15.23792876412823
XW-2A
1 40903U 15049E 22202.77764616 .00025846 00000-0 38795-3 0 9997
2 40903 97.1765 261.3846 0008904 4.3633 62.9520 15.54839680384595
XW-2C
1 40906U 15049H 22202.78726912 .00005686 00000-0 27144-3 0 9994
2 40906 97.4934 205.9307 0012296 235.4446 249.4780 15.19389332378131
